Theta_e
334 333 334 333 329 326 322 324 325 324 323 322 320 319 318 317 315 313 312 309 309 309 308 309 311 310 311 312 313 313 311 308
332 330 331 330 326 324 323 325 324 322 320 318 318 316 315 314 313 313 311 309 308 308 308 309 310 310 311 312 310 309 306 307
330 328 327 327 325 326 324 324 323 322 321 320 318 317 315 314 313 311 310 309 309 307 307 307 309 309 310 310 310 307 306 307
327 326 325 325 325 323 324 325 323 322 321 319 318 317 313 311 310 309 308 308 307 307 307 306 308 309 308 310 309 308 304 305
327 326 324 324 326 325 325 325 324 322 321 319 317 313 310 311 311 309 307 307 306 307 307 307 307 307 308 308 308 308 307 304
327 329 325 325 326 326 322 324 324 322 320 320 317 315 314 314 311 309 308 307 306 306 307 307 306 305 306 305 306 307 306 304
327 329 327 324 327 327 324 325 323 321 321 320 319 317 316 313 310 308 307 306 306 306 306 307 306 305 305 305 305 305 303 303
330 325 325 322 325 325 323 324 322 321 321 320 320 319 318 315 312 310 308 307 306 306 306 306 305 306 305 305 304 303 303 301
329 330 326 325 324 326 324 322 321 321 320 319 320 320 319 317 315 313 311 309 308 309 307 306 305 305 304 304 303 302 303 302
329 331 329 326 326 326 325 320 320 320 319 321 320 320 320 318 318 316 314 313 311 309 307 305 303 304 304 303 302 302 302 302
328 330 330 325 326 325 323 321 319 320 320 320 320 320 320 320 319 316 315 314 312 308 305 305 301 304 303 303 301 302 301 301
326 329 330 325 326 322 321 319 319 320 321 320 321 320 320 320 319 318 316 314 311 307 305 303 302 302 300 300 297 300 300 299
327 330 329 325 325 321 318 320 320 322 322 320 321 321 320 319 319 319 319 312 311 307 305 302 302 301 299 296 296 297 296 298
327 328 325 325 325 323 320 319 321 322 321 320 321 321 319 319 319 320 318 312 312 308 306 301 301 297 297 295 297 295 296 298
327 325 324 324 324 323 323 323 323 323 322 320 320 320 319 319 319 319 319 314 311 308 305 305 301 296 294 296 294 294 296 296
325 325 324 323 322 322 322 324 324 323 320 320 321 321 319 318 318 318 318 313 308 311 305 299 302 294 294 293 292 293 293 295
324 326 324 322 321 320 320 322 322 322 322 321 319 318 319 318 317 318 313 308 311 303 303 304 296 294 292 291 292 292 293 292
321 325 325 325 324 321 322 322 323 322 321 320 318 317 315 315 315 312 311 311 306 302 303 300 296 298 291 291 290 293 291 292
321 325 326 326 323 321 322 321 320 318 320 319 318 317 315 316 315 314 313 311 309 306 304 300 301 298 291 291 289 292 292 293
Wind_Speed
17 17 15 16 16 15 14 12 13 12 9 8 7 6 6 6 5 6 7 5 6 5 5 5 4 4 5 6 8 7 7 7
16 15 15 15 16 16 16 17 16 13 10 10 9 8 7 6 5 7 7 6 5 5 5 5 4 5 6 8 8 9 7 8
18 17 17 16 16 18 18 18 18 14 11 9 8 7 7 6 6 7 7 7 6 5 5 5 5 6 8 9 10 7 7 5
21 21 20 17 18 18 19 19 19 16 15 10 8 8 6 7 8 7 7 8 7 6 6 5 6 6 7 8 8 8 6 5
22 23 20 18 19 16 18 18 19 17 18 14 14 11 10 8 9 8 8 9 8 7 7 6 7 5 6 6 6 6 4 6
25 25 19 19 18 20 22 24 22 20 19 16 14 13 10 8 8 11 9 9 9 9 9 8 7 5 6 7 7 7 6 5
21 21 19 18 20 21 18 22 22 21 20 19 18 17 13 11 11 10 9 8 8 10 10 9 8 6 7 7 7 7 5 5
22 21 23 20 26 23 18 23 23 24 22 21 20 18 16 16 14 11 12 10 9 11 11 10 8 9 9 8 7 6 7 6
21 25 22 22 23 25 25 23 23 24 23 23 19 19 12 12 14 11 10 10 10 12 11 10 10 10 9 7 6 6 6 6
18 20 22 20 22 23 25 22 23 25 24 20 20 18 18 15 16 14 10 11 9 13 13 11 10 11 10 9 6 7 7 7
14 16 19 18 19 19 21 21 21 21 22 20 18 19 19 16 15 16 14 12 12 14 14 14 12 13 11 11 8 8 8 6
13 14 14 18 17 17 19 20 21 21 20 21 20 19 20 18 17 16 16 14 15 15 14 15 13 13 12 12 8 11 11 9
10 13 15 18 17 18 20 20 22 21 20 20 20 19 20 19 18 17 16 16 16 16 16 13 14 14 14 12 11 12 11 13
10 12 15 18 21 21 21 19 22 21 22 19 18 20 19 20 20 19 17 16 18 17 16 16 16 14 15 12 12 11 13 13
13 14 16 18 19 21 21 23 21 22 18 21 21 21 22 20 19 19 18 18 16 18 18 17 17 14 12 14 12 10 11 10
17 18 17 17 18 17 17 19 18 17 20 21 21 19 18 18 18 18 17 18 17 18 15 15 16 13 12 15 14 13 12 12
19 19 17 18 20 19 17 18 18 19 20 21 15 15 17 17 15 15 16 17 17 15 17 16 14 11 17 20 14 12 13 13
17 19 19 16 14 15 17 16 16 17 18 17 17 15 15 14 13 15 17 16 15 15 17 16 18 18 19 23 22 13 13 13
14 15 16 15 11 11 11 12 14 16 16 16 15 15 16 15 16 18 16 16 18 17 16 17 15 14 21 25 24 15 13 15
Wind_Direction
189 195 189 178 170 169 167 177 170 170 168 164 157 157 152 152 148 132 145 132 131 135 122 124 154 140 147 145 137 139 137 129
192 191 188 184 175 174 175 179 174 175 176 175 172 173 163 158 152 147 145 142 135 141 131 142 147 141 123 137 128 137 136 135
197 194 190 191 178 184 183 183 180 185 179 184 179 168 172 162 150 154 149 152 153 155 149 143 139 129 137 149 153 147 142 167
201 197 193 185 189 188 188 189 185 187 181 174 175 165 160 172 165 163 165 165 165 157 156 149 148 154 160 167 165 168 157 170
208 205 194 187 192 188 194 196 189 190 185 181 182 184 180 185 174 166 163 169 165 163 159 168 168 162 158 169 186 181 195 184
217 207 195 190 193 191 191 191 190 190 188 192 188 195 189 171 171 161 170 170 172 170 172 173 166 167 161 173 185 199 203 231
221 212 193 190 192 202 200 191 193 192 193 197 196 195 189 176 175 174 176 174 179 179 180 174 172 164 171 175 180 183 200 214
205 201 198 188 194 198 193 198 196 192 196 198 197 199 193 189 181 186 177 180 187 183 181 179 178 179 179 176 180 173 183 187
221 203 203 198 199 195 195 194 200 194 196 200 198 203 196 197 192 190 190 190 186 174 184 182 185 180 179 182 184 186 185 195
222 212 205 201 198 197 200 194 199 197 199 200 200 201 204 198 192 200 194 192 183 176 183 183 182 187 179 184 200 196 190 193
229 219 209 195 200 194 192 198 204 203 200 201 200 201 203 202 196 199 198 193 187 180 182 185 186 189 187 181 202 208 202 199
243 220 195 197 197 184 193 192 196 204 203 202 202 201 203 204 205 200 201 191 188 187 190 187 188 187 192 194 192 198 207 202
235 209 189 193 196 188 193 194 198 203 207 203 203 201 203 206 209 205 201 193 193 193 189 188 188 196 195 194 193 201 198 206
213 198 199 195 197 198 195 197 203 201 207 202 203 205 204 209 210 206 200 195 200 197 190 191 197 195 199 199 204 193 205 214
210 201 203 203 204 199 201 200 202 204 204 202 207 208 209 209 209 210 203 203 202 193 200 203 203 197 188 202 197 197 210 216
221 211 203 202 202 201 199 203 199 197 203 208 211 211 214 213 214 211 205 202 201 202 193 197 199 189 194 192 188 192 204 213
229 214 211 203 203 194 193 197 200 200 206 211 206 200 207 215 211 208 194 201 205 191 200 198 197 197 192 186 188 192 204 210
233 219 213 209 203 194 201 191 201 202 207 213 209 205 200 204 199 197 207 208 192 199 198 196 196 205 184 185 187 197 199 210
232 215 207 199 193 191 181 177 200 201 207 213 208 206 209 208 210 218 214 208 213 207 204 205 205 205 190 190 190 204 207 213